Home > Weather > Seattle > Past weeks

Flag for USA Past Weather in Seattle, Washington, USA — Yesterday and Last 2 Weeks

Now
63 °F

Overcast.


Feels Like: 63 °F
Forecast: 62 / 76 °F
Wind: 5 mph from North

Location: Seattle Boeing Field

Current Time: Jul 26, 2016 at 11:03:08 AM

Latest Report: Jul 26, 2016 at 9:53 AM


Visibility: 10 mi

Pressure: 30.17 "Hg

Humidity: 75%

Dew Point: 55 °F

Location of SeattleLocation

Past Weather in Seattle — Graph

°F

Seattle Temperature Yesterday

Maximum temperature yesterday: 84 °F (at 3:53 PM)
Minimum temperature yesterday: 62 °F (at 4:53 AM)
Average temperature yesterday: 73 °F

High & Low Weather Summary for the Past Weeks

 TemperatureHumidityPressure
High84 °F (Jul 25, 3:53 PM)90% (Jul 22, 7:53 AM)30.27 "Hg (Jul 22, 7:53 AM)
Low58 °F (Jul 14, 5:53 AM)30% (Jul 20, 4:53 PM)29.88 "Hg (Jul 17, 6:53 PM)
Average68 °F62%30.10 "Hg
* Reported Jul 11 9:53 AM — Jul 26 9:53 AM, Seattle, Weather by CustomWeather, © 2016

Note: Actual official high and low records may vary slightly from our data, if they occured in-between our weather recording intervals... More about our weather records

Advertising

Seattle Weather History for the Previous 24 Hours

Scroll right to see more
 ConditionsComfort  
Time TempWeatherWind HumidityBarometerVisibility
9:53 AM
Tue, Jul 26
63 °FOvercast.5 mph75%30.17 "Hg10 mi
8:53 AM61 °FLow clouds.5 mph83%30.17 "Hg10 mi
7:53 AM61 °FLow clouds.5 mph81%30.16 "Hg10 mi
6:53 AM60 °FLow clouds.5 mph83%30.15 "Hg10 mi
5:53 AM60 °FLow clouds.6 mph83%30.13 "Hg10 mi
5:04 AM60 °FLow clouds.7 mph83%30.13 "Hg10 mi
4:53 AM61 °FOvercast.8 mph83%30.12 "Hg10 mi
3:53 AM61 °FPassing clouds.6 mph83%30.11 "Hg10 mi
2:53 AM63 °FPassing clouds.3 mph78%30.11 "Hg10 mi
1:53 AM64 °FPassing clouds.No wind75%30.09 "Hg10 mi
12:53 AM70 °FPassing clouds.No wind61%30.08 "Hg10 mi
11:53 PM
Mon, Jul 25
70 °FPassing clouds.No wind61%30.06 "Hg10 mi
10:53 PM70 °FPassing clouds.3 mph64%30.05 "Hg10 mi
9:53 PM71 °FPassing clouds.7 mph63%30.04 "Hg10 mi
8:53 PM76 °FScattered clouds.No wind54%30.03 "Hg10 mi
7:53 PM79 °FPassing clouds.7 mph47%30.01 "Hg10 mi
6:53 PM83 °FPassing clouds.7 mph41%30.01 "Hg10 mi
5:53 PM84 °FPassing clouds.8 mph36%30.01 "Hg10 mi
4:53 PM84 °FPassing clouds.8 mph38%30.01 "Hg10 mi
3:53 PM84 °FSunny.7 mph40%30.03 "Hg10 mi
2:53 PM82 °FSunny.7 mph41%30.04 "Hg10 mi
1:53 PM81 °FPassing clouds.7 mph42%30.05 "Hg10 mi
12:53 PM80 °FSunny.10 mph44%30.05 "Hg10 mi
11:53 AM78 °FScattered clouds.6 mph45%30.06 "Hg10 mi
Weather by CustomWeather, © 2016

See weather overviewHow to use our weather pages